Regional Weather Roundup
Issued by NWS State College, PA

Home | Current Version | Previous Version | Text Only | Print | Product List | Glossary On
Versions: 1 2 3 4 5 6 7 8 9 10 11 12 13 14 15 16 17 18 19 20 21 22 23 24 25 26 27 28 29 30 31 32 33 34 35 36 37 38 39 40 41 42 43 44 45 46 47 48 49 50
551
ASUS41 KCTP 222010
RWRCTP

REGIONAL WEATHER ROUNDUP
NATIONAL WEATHER SERVICE STATE COLLEGE PA
400 PM EDT FRI MAY 22 2015

Note: "fair" indicates few or no clouds below 12,000 feet with no
significant weather and/or obstructions to visibility.

* = STATION THAT DOES NOT REPORT PRECIPITATION /E.G. RAIN...SNOW...ETC/
    THUNDER OR FOG.

PAZ002>004-007>009-013>016-020>023-029>032-222100-
WESTERN PENNSYLVANIA

CITY           SKY/WX    TMP DP  RH WIND       PRES   REMARKS
ERIE           SUNNY     58  39  49 W14G29    30.19R
MEADVILLE      SUNNY     57  27  31 NW18G29   30.19R
FRANKLIN*      SUNNY     59  28  31 W15G25    30.18R
NEW CASTLE     FAIR      64  28  25 NW15G22   30.18R
BEAVER COUNTY  SUNNY     64  32  29 NW13G22   30.16R
BUTLER*        SUNNY     64  30  27 NW14G25   30.17R
PITTSBURGH INT MOSUNNY   68  38  33 NW21G29   30.14R
PITTSBURGH     PTSUNNY   65  41  41 NW8G23    30.13S
INDIANA*       PTSUNNY   66  43  42 NW14G24   30.14R
LATROBE        MOSUNNY   66  46  48 W17G29    30.14S
WASHINGTON CO* MOSUNNY   64  46  52 W9G16     30.18S
$$

PAZ004>006-010>012-017>019-024>028-033>037-041-042-045-046-049>053-222100-
CENTRAL PENNSYLVANIA

CITY           SKY/WX    TMP DP  RH WIND       PRES   REMARKS
BRADFORD       SUNNY     58  26  29 NW18G25   30.10R
DUBOIS         SUNNY     63  26  24 NW20G29   30.10R
CLEARFIELD     MOSUNNY   65  31  28 W12G28    30.07R
JOHNSTOWN      LGT RAIN  57  46  66 W12G21    30.10S
ALTOONA        RAIN      61  46  57 W16G22    30.09S
STATE COLLEGE  MOSUNNY   66  37  34 W16G30    30.05S
WILLIAMSPORT   PTSUNNY   67  42  40 SW21G26   29.97F
SELINSGROVE    LGT RAIN  67  42  40 W12G20    30.02R
FT INDIANTOWN  SUNNY     71  41  33 W20G32    30.01F
CAPITAL CITY   MOSUNNY   71  40  32 NW14G29   30.02F
HARRISBURG     MOSUNNY   73  42  32 NW21G30   30.01S
YORK           PTSUNNY   70  42  36 W18G26    30.04R
$$

PAZ038>040-043-044-047-048-054-055-060>062-067>071-222100-
EASTERN PENNSYLVANIA

CITY           SKY/WX    TMP DP  RH WIND       PRES   REMARKS
SCRANTON       PTSUNNY   69  36  29 NW15      29.97S
MOUNT POCONO   LGT RAIN  57  42  57 W12       29.99R
ALLENTOWN      MOSUNNY   71  42  35 W15G26    29.97S
QUAKERTOWN*    PTCLDY    72  41  33 W15G24    29.99S
READING        MOSUNNY   73  40  30 W24G32    29.98S
LANCASTER      MOSUNNY   71  41  33 W24G35    30.00F
COATESVILLE    MOCLDY    70  41  35 W21G31    30.02S
POTTSTOWN      MOSUNNY   73  41  31 W16G25    30.00S
BLUE BELL      MOSUNNY   73  41  31 W13G24    29.97F
DOYLESTOWN     PTSUNNY   71  40  32 W13G25    29.97S
WILLOW GROVE   NOT AVBL
NORTH PHILA    PTSUNNY   76  38  25 W18       29.98F
PHILADELPHIA   PTSUNNY   75  39  27 W21G30    30.00S
$$



USA.gov is the U.S. government's official web portal to all federal, state and local government web resources and services.